Miscellaneous Local Product
Issued by NWS North Platte, NE

Home | Current Version | Previous Version | Text Only | Print | Product List | Glossary On
Versions: 1 2 3 4 5 6 7 8 9 10 11 12 13 14 15 16 17 18 19 20 21 22 23 24 25 26 27 28 29 30 31 32 33 34 35 36 37 38 39 40 41 42 43 44 45 46 47 48 49 50
778
AXUS43 KLBF 160310
MISLBF


WESTERN AND NORTH CENTRAL NEBRASKA HOURLY WEATHER ROUNDUP
NATIONAL WEATHER SERVICE NORTH PLATTE NE
900 PM CST SUN JAN 15 2017

NOTE: "FAIR" INDICATES FEW OR NO CLOUDS BELOW 12,000 FEET WITH NO
SIGNIFICANT WEATHER AND/OR OBSTRUCTIONS TO VISIBILITY.

NOTE: STATIONS NOT REPORTING VARIABLES SUCH AS SKY/WEATHER OR
PRESSURE ARE PROVIDED BY RAWS AND APRS NETWORKS AND ARE NOT UNDER
NATIONAL WEATHER SERVICE QUALITY CONTROL.

...OBSERVATIONS IN AND NEAR THE EASTERN PANHANDLE OF NEBRASKA...

CITY           SKY/WX    TMP DP  RH WIND       PRES   REMARKS
PINE RIDGE     CLOUDY    15  14  95 E3        30.02S
CHADRON        CLOUDY    22  19  89 CALM      30.03S
ALLIANCE       CLOUDY    28  23  81 N5        29.98S WCI  23
SIDNEY         CLOUDY    30  27  88 CALM      29.98S
CRESCENT LAKE    N/A     30  28  90 SW3         N/A
$$

...OBSERVATIONS IN NORTHERN NEBRASKA AND FAR SOUTHERN SOUTH DAKOTA...

CITY           SKY/WX    TMP DP  RH WIND       PRES   REMARKS
WINNER         FAIR      24  19  81 CALM      30.07S
VALENTINE      CLOUDY    31  22  69 S3        30.04S
THEDFORD       CLOUDY    34  27  73 CALM      30.03S
AINSWORTH      CLOUDY    32  26  78 S3        30.04S
O`NEILL        CLOUDY    32  26  76 S6        30.08S WCI  27
ORD            FRZ RAIN  31  28  89 E6        30.07F FOG     WCI  25
BROKEN BOW     CLOUDY    31  30  96 SE5       30.04S FOG     WCI  26
VALENTINE NWR    N/A     50  24  36 S6          N/A
BUTTE            N/A     29  22  74 SE3         N/A
HALSEY           N/A     50  24  37 S3          N/A
SARGENT          N/A     31  21  67 CALM        N/A
CHAMBERS         N/A     32  24  71 CALM        N/A
EWING            N/A     31  27  85 S3          N/A
$$

...OBSERVATIONS IN SOUTHWEST NEBRASKA AND FAR NORTHEAST COLORADO...

CITY           SKY/WX    TMP DP  RH WIND       PRES   REMARKS
WRAY           CLOUDY   N/A N/A N/A CALM      29.99
HOLYOKE        LGT SNOW  34  32  93 CALM      29.99F
IMPERIAL       FRZ RAIN  31  29  92 SE5       30.01S WCI  26
OGALLALA       MIX PCPN  32  31  94 CALM      30.00F
NORTH PLATTE   FRZ RAIN  31  29  92 SE5       30.03S FOG     WCI  26
MCCOOK         MIX PCPN  30  30 100 SE6       30.05R FOG     WCI  24
LEXINGTON      MIX PCPN  31  30  94 SE3       30.06S
STAPLETON        N/A     29  27  92 CALM        N/A
GOTHENBURG       N/A     32  30  94 CALM        N/A
CALLAWAY         N/A     29  27  93 E3          N/A
$$

...OBSERVATIONS IN CENTRAL LINCOLN COUNTY AREA...

CITY           SKY/WX    TMP DP  RH WIND       PRES   REMARKS
N.P. AIRPORT   FRZ RAIN  31  29  92 SE5       30.03S FOG     WCI  26
N.P. DOWNTOWN    N/A     30  29  95 CALM        N/A
N.P. SOUTHEAST   N/A     30  28  92 CALM        N/A
N.P. HILLCREST   N/A     31  30  94 CALM        N/A
$$

...SOME OBSERVATIONS FROM AROUND THE REGION...

CITY           SKY/WX    TMP DP  RH WIND       PRES   REMARKS
LARAMIE        CLOUDY    20  17  88 E3        29.95S
CHEYENNE       CLOUDY    32  21  64 N6        29.96S WCI  26
DENVER         FLURRIES  32  26  78 N5        29.96S WCI  27
AKRON          CLOUDY    28  25  88 NW6       29.96S FOG     WCI  22
SCOTTSBLUFF    CLOUDY    29  24  82 N6        30.00R WCI  23
RAPID CITY     CLOUDY    25  11  55 W3        30.01S
BISMARCK       CLOUDY     2  -3  80 CALM      30.05R
PIERRE         CLOUDY     8   5  87 CALM      30.09S
SIOUX FALLS    CLOUDY    27  18  69 S5        30.14F WCI  22
OMAHA          FRZ RAIN  32  28  85 E5        30.16F WCI  27
GRAND ISLAND   CLOUDY    30  30 100 SE6       30.09F FOG     WCI  24
KANSAS CITY    FRZ RAIN  32  30  92 E9        30.13F FOG     WCI  24
WICHITA        RAIN      34  34 100 NE13      30.01F FOG     WCI  25
OKLAHOMA CITY  LGT RAIN  42  42 100 NW12      29.93R FOG
DALLAS         TSTM      65  65 100 E24G45    29.77F VSB 1/2
AMARILLO       CLOUDY    32  31  96 N10       29.89F FOG     WCI  24
DODGE CITY     MIX PCPN  31  30  96 NE16      29.97F WCI  20
HAYS           CLOUDY    30  29  96 NE8       30.07R WCI  22
GOODLAND       CLOUDY    30  29  96 E6        29.98F WCI  24
$$




USA.gov is the U.S. government's official web portal to all federal, state and local government web resources and services.